Regional Weather Roundup
Issued by NWS

Home | Current Version | Previous Version | Graphics & Text | Print | Product List | Glossary On
Versions: 1 2 3 4 5 6 7 8 9 10 11 12 13 14 15 16 17 18 19 20 21 22 23 24 25 26 27 28 29 30 31 32 33 34 35 36 37 38 39 40 41 42 43 44 45 46 47 48 49 50
951
ASUS43 KBIS 111110
RWRND
NORTH DAKOTA REGIONAL WEATHER ROUNDUP
NATIONAL WEATHER SERVICE EASTERN NORTH DAKOTA/GRAND FORKS ND
500 AM CST THU FEB 11 2016

  NOTE: "FAIR" INDICATES FEW OR NO CLOUDS BELOW 12,000 FEET WITH NO
  SIGNIFICANT WEATHER AND/OR OBSTRUCTIONS TO VISIBILITY.

NDZ001>003-009>011-017-111200-
...NORTHWEST NORTH DAKOTA...

CITY           SKY/WX    TMP DP  RH WIND       PRES   REMARKS
WILLISTON      LGT SNOW  26  23  88 CALM      30.07S FOG
MINOT          CLOUDY    15   6  67 NE6       30.14F WCI   6
MINOT AFB      CLOUDY    12   9  89 E6        30.13F WCI   2
$$

NDZ018>021-031>035-040>046-111200-
...SOUTHWEST NORTH DAKOTA...

CITY           SKY/WX    TMP DP  RH WIND       PRES   REMARKS
BISMARCK       CLOUDY    19  12  74 SE7       30.15F WCI  10
DICKINSON      CLOUDY    25  22  88 SE7       30.00F FOG     WCI  17
GARRISON         N/A     15  11  83 E5        30.10F WCI   8
HETTINGER      LGT SNOW  29  27  92 S7        30.04F FOG     WCI  22
$$

NDZ004>008-012>016-024-026-027-054-111200-
...NORTHEAST NORTH DAKOTA...

CITY           SKY/WX    TMP DP  RH WIND       PRES   REMARKS
GRAND FORKS    CLOUDY     3  -2  79 CALM      30.29S
GRAND FORKS AF CLOUDY     3  -2  79 S3        30.28S
DEVILS LAKE    FLURRIES   4   1  88 S6        30.20F WCI  -7
$$

NDZ022-023-025-028>030-036>039-047>053-111200-
...SOUTHEAST NORTH DAKOTA...

CITY           SKY/WX    TMP DP  RH WIND       PRES   REMARKS
JAMESTOWN      CLOUDY     6   1  80 SE7       30.19F WCI  -6
FARGO          CLOUDY     2  -4  76 CALM      30.29S
WAHPETON       CLOUDY     0  -6  78 CALM      30.28F
$$




USA.gov is the U.S. government's official web portal to all federal, state and local government web resources and services.